Location: Newark
(33.2404°N, 35.6778°E)
Time: 11:24:22
(UTC+00:00)

Hubble Space Telescope - Pass Details

Date: 04 February 2020
Orbit: 536 x 540 km, 28.5° (Epoch: 23 February)

Event Time Altitude Azimuth Distance (km) Brightness Sun altitude
Exits shadow 03:09:31 27° 232° (SW) 1,033 1.8 -17.4°
Maximum altitude 03:11:13 43° 180° (S) 757 1.5 -17.1°
Drops below altitude 10° 03:15:08 10° 108° (ESE) 1,777 4.7 -16.3°
Sets 03:17:27 0° 102° (ESE) 2,668 6.2 -15.8°
